TimeCDT,TemperatureF,Dew PointF,Humidity,Sea Level PressureIn,VisibilityMPH,Wind Direction,Wind SpeedMPH,Gust SpeedMPH,PrecipitationIn,Events,Conditions,WindDirDegrees,DateUTC
12:35 AM,34.0,26.1,73,30.13,10.0,NNW,12.7,-,N/A,,Partly Cloudy,340,2014-03-12 05:35:00
12:56 AM,32.0,26.1,79,30.18,10.0,NNW,9.2,-,N/A,,Clear,330,2014-03-12 05:56:00
1:56 AM,30.0,26.1,85,30.19,10.0,WNW,8.1,-,N/A,,Clear,290,2014-03-12 06:56:00
2:56 AM,30.0,26.1,85,30.19,10.0,WNW,8.1,-,N/A,,Partly Cloudy,290,2014-03-12 07:56:00
3:56 AM,30.0,26.1,85,30.18,10.0,WNW,6.9,-,N/A,,Overcast,290,2014-03-12 08:56:00
4:56 AM,30.0,26.1,85,30.19,10.0,West,8.1,-,N/A,,Overcast,280,2014-03-12 09:56:00
5:56 AM,30.0,27.0,88,30.18,10.0,West,9.2,-,N/A,,Overcast,270,2014-03-12 10:56:00
6:56 AM,28.0,25.0,88,30.19,10.0,West,6.9,-,N/A,,Scattered Clouds,260,2014-03-12 11:56:00
7:56 AM,28.9,26.1,89,30.19,10.0,West,8.1,-,N/A,,Clear,270,2014-03-12 12:56:00
8:56 AM,30.0,26.1,85,30.18,10.0,West,6.9,-,N/A,,Scattered Clouds,260,2014-03-12 13:56:00
9:56 AM,34.0,28.0,79,30.18,10.0,WNW,10.4,-,N/A,,Clear,290,2014-03-12 14:56:00
10:56 AM,39.9,28.9,65,30.17,10.0,NW,15.0,-,N/A,,Clear,320,2014-03-12 15:56:00
11:56 AM,44.1,28.9,55,30.16,10.0,NW,16.1,21.9,N/A,,Clear,320,2014-03-12 16:56:00
12:56 PM,48.0,27.0,44,30.15,10.0,WNW,19.6,25.3,N/A,,Clear,300,2014-03-12 17:56:00
1:56 PM,50.0,23.0,35,30.13,10.0,NNW,20.7,28.8,N/A,,Clear,330,2014-03-12 18:56:00
2:56 PM,52.0,23.0,32,30.11,10.0,NW,24.2,29.9,N/A,,Clear,310,2014-03-12 19:56:00
3:56 PM,54.0,23.0,30,30.08,10.0,NW,19.6,-,N/A,,Scattered Clouds,310,2014-03-12 20:56:00
4:56 PM,54.0,21.9,29,30.07,10.0,NW,18.4,28.8,N/A,,Partly Cloudy,320,2014-03-12 21:56:00
5:56 PM,54.0,23.0,30,30.06,10.0,WNW,16.1,23.0,N/A,,Clear,300,2014-03-12 22:56:00
6:56 PM,52.0,24.1,34,30.05,10.0,NW,8.1,-,N/A,,Clear,320,2014-03-12 23:56:00
7:56 PM,45.0,24.1,44,30.06,10.0,West,5.8,-,N/A,,Clear,260,2014-03-13 00:56:00
8:56 PM,39.0,24.1,55,30.07,10.0,WSW,6.9,-,N/A,,Clear,250,2014-03-13 01:56:00
9:56 PM,37.9,25.0,60,30.07,10.0,Calm,Calm,-,N/A,,Clear,0,2014-03-13 02:56:00
10:56 PM,37.0,24.1,59,30.06,10.0,WSW,9.2,-,N/A,,Clear,250,2014-03-13 03:56:00
11:56 PM,37.0,24.1,59,30.07,10.0,West,9.2,-,N/A,,Clear,270,2014-03-13 04:56:00